2023/08/19 00:00:00,14.8,23.1
2023/08/19 00:10:00,17.9,22.4
2023/08/19 00:20:00,19.8,22.6
2023/08/19 00:30:00,23.4,22.7
2023/08/19 00:40:00,24.3,22.7
2023/08/19 00:50:00,25.3,22.8
2023/08/19 01:00:00,24.0,22.8
2023/08/19 01:10:00,24.8,22.9
2023/08/19 01:20:00,24.7,22.6
2023/08/19 01:30:00,24.4,22.5
2023/08/19 01:40:00,25.9,22.3
2023/08/19 01:50:00,25.8,22.3
2023/08/19 02:00:00,25.6,22.4
2023/08/19 02:10:00,24.2,22.3
2023/08/19 02:20:00,24.4,22.3
2023/08/19 02:30:00,23.8,22.3
2023/08/19 02:40:00,26.6,22.2
2023/08/19 02:50:00,26.6,21.8
2023/08/19 03:00:00,27.4,22.1
2023/08/19 03:10:00,26.8,22.3
2023/08/19 03:20:00,26.7,22.1
2023/08/19 03:30:00,26.7,22.0
2023/08/19 03:40:00,27.7,22.0
2023/08/19 03:50:00,28.8,21.9
2023/08/19 04:00:00,30.1,21.9
2023/08/19 04:10:00,28.8,22.1
2023/08/19 04:20:00,29.5,21.9
2023/08/19 04:30:00,31.0,22.0
2023/08/19 04:40:00,31.4,21.5
2023/08/19 04:50:00,28.8,21.8
2023/08/19 05:00:00,27.8,22.1
2023/08/19 05:10:00,28.0,21.9
2023/08/19 05:20:00,27.4,21.8
2023/08/19 05:30:00,26.7,21.9
2023/08/19 05:40:00,28.3,22.0
2023/08/19 05:50:00,29.5,21.9
2023/08/19 06:00:00,28.6,22.1
2023/08/19 06:10:00,38.0,22.0
2023/08/19 06:20:00,54.3,22.4
2023/08/19 06:30:00,56.0,22.6
2023/08/19 06:40:00,55.6,22.8
2023/08/19 06:50:00,55.4,23.3
2023/08/19 07:00:00,55.2,23.6
2023/08/19 07:10:00,55.2,24.3
2023/08/19 07:20:00,54.7,25.0
2023/08/19 07:30:00,53.7,25.1
2023/08/19 07:40:00,53.9,25.0
2023/08/19 07:50:00,54.2,24.8
2023/08/19 08:00:00,54.2,24.9
2023/08/19 08:10:00,54.5,24.9
2023/08/19 08:20:00,54.6,25.2
2023/08/19 08:30:00,54.7,25.5
2023/08/19 08:40:00,54.6,25.4
2023/08/19 08:50:00,54.5,25.8
2023/08/19 09:00:00,54.5,25.8
2023/08/19 09:10:00,54.5,26.6
2023/08/19 09:20:00,54.4,27.1
2023/08/19 09:30:00,54.4,27.0
2023/08/19 09:40:00,54.5,26.8
2023/08/19 09:50:00,54.4,27.3
2023/08/19 10:00:00,54.5,27.2
2023/08/19 10:10:00,53.5,28.0
2023/08/19 10:20:00,52.1,28.3
2023/08/19 10:30:00,52.6,28.1
2023/08/19 10:40:00,53.5,27.9
2023/08/19 10:50:00,53.4,28.9
2023/08/19 11:00:00,52.6,29.6
2023/08/19 11:10:00,51.2,31.0
2023/08/19 11:20:00,---,30.5
2023/08/19 11:30:00,50.8,28.6
2023/08/19 11:40:00,52.9,27.7
2023/08/19 11:50:00,53.6,29.0
2023/08/19 12:00:00,52.2,29.5
2023/08/19 12:10:00,50.5,29.9
2023/08/19 12:20:00,51.0,29.8
2023/08/19 12:30:00,50.2,29.6
2023/08/19 12:40:00,51.4,30.2
2023/08/19 12:50:00,51.0,29.9
2023/08/19 13:00:00,51.5,29.1
2023/08/19 13:10:00,52.6,28.7
2023/08/19 13:20:00,53.0,28.5
2023/08/19 13:30:00,52.8,29.0
2023/08/19 13:40:00,53.0,28.2
2023/08/19 13:50:00,53.1,28.4
2023/08/19 14:00:00,53.2,28.4
2023/08/19 14:10:00,52.7,29.3
2023/08/19 14:20:00,52.8,28.6
2023/08/19 14:30:00,52.8,29.2
2023/08/19 14:40:00,51.6,30.5
2023/08/19 14:50:00, 0.0,30.1
2023/08/19 15:00:00,11.7,30.0
2023/08/19 15:10:00,24.7,29.0
2023/08/19 15:20:00,51.0,29.7
2023/08/19 15:30:00,49.3,30.0
2023/08/19 15:40:00,51.1,29.8
2023/08/19 15:50:00,49.8,29.3
2023/08/19 16:00:00,---,29.1
2023/08/19 16:10:00,---,29.0
2023/08/19 16:20:00,52.3,28.1
2023/08/19 16:30:00,53.2,27.3
2023/08/19 16:40:00,53.5,27.4
2023/08/19 16:50:00,53.6,27.5
2023/08/19 17:00:00,53.1,27.1
2023/08/19 17:10:00,53.1,26.9
2023/08/19 17:20:00,53.7,26.6
2023/08/19 17:30:00,53.8,26.7
2023/08/19 17:40:00,53.9,26.2
2023/08/19 17:50:00,53.9,25.9
2023/08/19 18:00:00,54.0,25.6
2023/08/19 18:10:00,54.1,25.3
2023/08/19 18:20:00,54.3,25.0
2023/08/19 18:30:00,54.4,24.8
2023/08/19 18:40:00,54.6,24.5
2023/08/19 18:50:00,54.7,24.4
2023/08/19 19:00:00,54.8,24.1
2023/08/19 19:10:00,55.0,24.0
2023/08/19 19:20:00,55.2,24.0
2023/08/19 19:30:00,55.5,23.7
2023/08/19 19:40:00,55.6,23.6
2023/08/19 19:50:00,55.8,23.6
2023/08/19 20:00:00,56.2,23.3
2023/08/19 20:10:00,52.3,23.1
2023/08/19 20:20:00,31.7,22.9
2023/08/19 20:30:00,30.6,22.8
2023/08/19 20:40:00,30.0,22.5
2023/08/19 20:50:00,30.0,23.7
2023/08/19 21:00:00,29.4,22.6
2023/08/19 21:10:00,29.5,22.3
2023/08/19 21:20:00,28.8,22.6
2023/08/19 21:30:00,28.8,22.3
2023/08/19 21:40:00,28.3,22.5
2023/08/19 21:50:00,28.4,22.2
2023/08/19 22:00:00,28.3,22.3
2023/08/19 22:10:00,28.4,21.9
2023/08/19 22:20:00,28.2,22.1
2023/08/19 22:30:00,28.4,21.9
2023/08/19 22:40:00,28.1,22.0
2023/08/19 22:50:00,28.2,22.0
2023/08/19 23:00:00,28.3,22.0
2023/08/19 23:10:00,28.3,21.8
2023/08/19 23:20:00,28.3,21.7
2023/08/19 23:30:00,27.9,21.5
2023/08/19 23:40:00,28.0,21.7
2023/08/19 23:50:00,27.8,21.5
